Location: Bottom School (historical)
(37.9078°N, 89.3593°W)
Time: 02:51:02
(UTC+00:00)

Cosmos 1570 Rocket - Pass Details

Date: 05 July 2022
Orbit: 762 x 788 km, 74.1° (Epoch: 13 August)

Event Time Altitude Azimuth Distance (km) Brightness Sun altitude
Exits shadow 07:12:17 23° 108° (ESE) 1,581 5.6 -27.1°
Maximum altitude 07:12:54 24° 98° (E) 1,561 5.6 -27.1°
Drops below altitude 10° 07:16:59 10° 46° (NE) 2,310 7.3 -26.8°
Sets 07:19:46 0° 33° (NNE) 3,245 8.5 -26.6°
